TimeCST,TemperatureF,Dew PointF,Humidity,Sea Level PressureIn,VisibilityMPH,Wind Direction,Wind SpeedMPH,Gust SpeedMPH,PrecipitationIn,Events,Conditions,WindDirDegrees,DateUTC
12:53 AM,35.1,26.1,70,30.20,10.0,South,3.5,-,N/A,,Clear,190,2012-02-17 06:53:00
1:53 AM,34.0,26.1,73,30.19,10.0,South,4.6,-,N/A,,Clear,180,2012-02-17 07:53:00
2:53 AM,34.0,27.0,75,30.16,10.0,Calm,Calm,-,N/A,,Clear,0,2012-02-17 08:53:00
3:53 AM,33.1,27.0,78,30.15,10.0,Calm,Calm,-,N/A,,Clear,0,2012-02-17 09:53:00
4:53 AM,30.9,26.1,82,30.15,9.0,South,5.8,-,N/A,,Clear,180,2012-02-17 10:53:00
5:53 AM,33.1,26.1,75,30.15,10.0,SSW,4.6,-,N/A,,Clear,210,2012-02-17 11:53:00
6:53 AM,30.9,26.1,82,30.16,9.0,South,5.8,-,N/A,,Clear,190,2012-02-17 12:53:00
7:53 AM,33.1,27.0,78,30.16,8.0,South,4.6,-,N/A,,Clear,180,2012-02-17 13:53:00
8:53 AM,37.9,28.9,70,30.17,10.0,South,8.1,-,N/A,,Clear,190,2012-02-17 14:53:00
9:53 AM,44.1,30.0,58,30.17,10.0,South,9.2,-,N/A,,Clear,190,2012-02-17 15:53:00
10:53 AM,48.9,30.9,50,30.15,10.0,SSW,10.4,-,N/A,,Clear,210,2012-02-17 16:53:00
11:53 AM,52.0,32.0,47,30.13,10.0,SW,8.1,-,N/A,,Clear,220,2012-02-17 17:53:00
12:53 PM,55.0,30.9,40,30.11,10.0,WSW,11.5,16.1,N/A,,Clear,240,2012-02-17 18:53:00
1:53 PM,55.9,33.1,42,30.09,10.0,West,12.7,16.1,N/A,,Clear,270,2012-02-17 19:53:00
2:53 PM,57.0,32.0,39,30.07,10.0,WSW,5.8,-,N/A,,Partly Cloudy,250,2012-02-17 20:53:00
3:53 PM,57.0,30.9,37,30.06,10.0,West,10.4,-,N/A,,Clear,270,2012-02-17 21:53:00
4:53 PM,55.9,32.0,40,30.07,10.0,SW,4.6,-,N/A,,Clear,230,2012-02-17 22:53:00
5:53 PM,54.0,32.0,43,30.07,10.0,Calm,Calm,-,N/A,,Scattered Clouds,0,2012-02-17 23:53:00
6:53 PM,51.1,33.1,50,30.09,10.0,Calm,Calm,-,N/A,,Mostly Cloudy,0,2012-02-18 00:53:00
7:53 PM,48.0,33.1,56,30.09,10.0,Calm,Calm,-,N/A,,Mostly Cloudy,0,2012-02-18 01:53:00
8:23 PM,48.2,33.8,58,30.09,10.0,North,9.2,-,N/A,,Scattered Clouds,350,2012-02-18 02:23:00
8:53 PM,48.9,33.1,54,30.11,10.0,NNE,9.2,-,N/A,,Mostly Cloudy,20,2012-02-18 02:53:00
9:53 PM,46.9,28.9,50,30.12,10.0,North,15.0,-,N/A,,Mostly Cloudy,360,2012-02-18 03:53:00
10:53 PM,42.1,27.0,55,30.15,10.0,NNE,13.8,-,N/A,,Mostly Cloudy,20,2012-02-18 04:53:00
11:53 PM,39.9,25.0,55,30.17,10.0,NNE,11.5,-,N/A,,Overcast,20,2012-02-18 05:53:00